Time,TemperatureF,DewpointF,PressureIn,WindDirection,WindDirectionDegrees,WindSpeedMPH,WindSpeedGustMPH,Humidity,HourlyPrecipIn,Conditions,Clouds,dailyrainin,SoftwareType,DateUTC
2013-02-12 00:00:00,37.7,23.1,30.01,WNW,293,4.4,9.3,55,0.00,,,0.00,WUHU216HW,2013-02-12 05:00:00,
2013-02-12 00:05:00,37.7,22.9,30.01,West,270,0.2,4.4,55,0.00,,,0.00,WUHU216HW,2013-02-12 05:05:00,
2013-02-12 00:11:00,37.7,22.9,30.01,West,270,0.2,0.2,55,0.00,,,0.00,WUHU216HW,2013-02-12 05:11:00,
2013-02-12 00:16:00,37.5,22.3,30.01,WSW,248,2.4,9.6,54,0.00,,,0.00,WUHU216HW,2013-02-12 05:16:00,
2013-02-12 00:21:00,37.5,22.3,30.02,West,270,2.2,9.6,54,0.00,,,0.00,WUHU216HW,2013-02-12 05:21:00,
2013-02-12 00:26:00,37.5,22.3,30.02,WSW,248,1.5,3.8,54,0.00,,,0.00,WUHU216HW,2013-02-12 05:26:00,
2013-02-12 00:31:00,37.5,22.3,30.02,WNW,293,2.9,5.8,54,0.00,,,0.00,WUHU216HW,2013-02-12 05:31:00,
2013-02-12 00:36:00,37.5,22.3,30.01,West,270,0.0,5.8,54,0.00,,,0.00,WUHU216HW,2013-02-12 05:36:00,
2013-02-12 00:41:00,37.5,22.8,30.02,WSW,248,0.0,3.8,55,0.00,,,0.00,WUHU216HW,2013-02-12 05:41:00,
2013-02-12 00:46:00,37.4,22.8,30.02,WSW,248,0.0,1.7,55,0.00,,,0.00,WUHU216HW,2013-02-12 05:46:00,
2013-02-12 00:51:00,37.5,22.8,30.02,West,270,0.0,2.4,55,0.00,,,0.00,WUHU216HW,2013-02-12 05:51:00,
2013-02-12 00:56:00,37.5,22.8,30.03,WSW,248,0.0,2.4,55,0.00,,,0.00,WUHU216HW,2013-02-12 05:56:00,
2013-02-12 01:01:00,37.4,22.6,30.02,West,270,2.0,2.0,55,0.00,,,0.00,WUHU216HW,2013-02-12 06:01:00,
2013-02-12 01:06:00,37.2,22.9,30.02,WSW,248,1.7,4.6,56,0.00,,,0.00,WUHU216HW,2013-02-12 06:06:00,
2013-02-12 01:11:00,37.2,22.9,30.03,West,270,3.8,6.0,56,0.00,,,0.00,WUHU216HW,2013-02-12 06:11:00,
2013-02-12 01:16:00,37.2,22.9,30.02,West,270,0.0,6.0,56,0.00,,,0.00,WUHU216HW,2013-02-12 06:16:00,
2013-02-12 01:21:00,37.2,22.9,30.02,SW,225,1.3,3.5,56,0.00,,,0.00,WUHU216HW,2013-02-12 06:21:00,
2013-02-12 01:26:00,37.0,22.7,30.02,SW,225,5.8,8.9,56,0.00,,,0.00,WUHU216HW,2013-02-12 06:26:00,
2013-02-12 01:31:00,37.0,22.7,30.02,WSW,248,5.3,8.9,56,0.00,,,0.00,WUHU216HW,2013-02-12 06:31:00,
2013-02-12 01:36:00,37.2,22.5,30.02,WSW,248,8.5,8.5,55,0.00,,,0.00,WUHU216HW,2013-02-12 06:36:00,
2013-02-12 01:41:00,37.2,22.4,30.02,West,270,0.0,8.5,55,0.00,,,0.00,WUHU216HW,2013-02-12 06:41:00,
2013-02-12 01:46:00,37.4,22.6,30.02,WSW,248,3.8,7.8,55,0.00,,,0.00,WUHU216HW,2013-02-12 06:46:00,
2013-02-12 01:51:00,37.2,22.0,30.02,SW,225,4.4,9.6,54,0.00,,,0.00,WUHU216HW,2013-02-12 06:51:00,
2013-02-12 01:56:00,37.2,22.0,30.02,SSW,203,3.8,9.6,54,0.00,,,0.00,WUHU216HW,2013-02-12 06:56:00,
2013-02-12 02:01:00,37.2,22.0,30.02,North,0,0.0,7.1,54,0.00,,,0.00,WUHU216HW,2013-02-12 07:01:00,
2013-02-12 02:06:00,37.0,21.8,30.02,WSW,248,7.3,7.3,54,0.00,,,0.00,WUHU216HW,2013-02-12 07:06:00,
2013-02-12 02:11:00,37.0,21.8,30.03,WSW,248,3.5,7.3,54,0.00,,,0.00,WUHU216HW,2013-02-12 07:11:00,
2013-02-12 02:16:00,37.0,21.8,30.03,West,270,6.4,6.7,54,0.00,,,0.00,WUHU216HW,2013-02-12 07:16:00,
2013-02-12 02:21:00,37.0,21.8,30.03,WSW,248,3.1,6.4,54,0.00,,,0.00,WUHU216HW,2013-02-12 07:21:00,
2013-02-12 02:26:00,36.8,21.7,30.03,WSW,248,6.4,7.6,54,0.00,,,0.00,WUHU216HW,2013-02-12 07:26:00,
2013-02-12 02:31:00,36.8,21.7,30.03,WSW,248,6.0,7.6,54,0.00,,,0.00,WUHU216HW,2013-02-12 07:31:00,
2013-02-12 02:36:00,36.6,21.5,30.03,WSW,248,1.7,6.0,54,0.00,,,0.00,WUHU216HW,2013-02-12 07:36:00,
2013-02-12 02:41:00,36.5,21.3,30.04,West,270,0.0,5.1,54,0.00,,,0.00,WUHU216HW,2013-02-12 07:41:00,
2013-02-12 02:46:00,36.3,21.2,30.04,West,270,2.4,5.1,54,0.00,,,0.00,WUHU216HW,2013-02-12 07:46:00,
2013-02-12 02:51:00,36.1,21.5,30.04,West,270,2.6,4.2,55,0.00,,,0.00,WUHU216HW,2013-02-12 07:51:00,
2013-02-12 02:56:00,35.9,21.3,30.04,WSW,248,1.7,5.8,55,0.00,,,0.00,WUHU216HW,2013-02-12 07:56:00,
2013-02-12 03:01:00,35.7,21.1,30.04,SW,225,2.6,5.8,55,0.00,,,0.00,WUHU216HW,2013-02-12 08:01:00,
2013-02-12 03:06:00,35.4,20.8,30.04,SW,225,0.0,7.3,55,0.00,,,0.00,WUHU216HW,2013-02-12 08:06:00,
2013-02-12 03:11:00,35.2,21.0,30.04,WSW,248,2.9,7.3,56,0.00,,,0.00,WUHU216HW,2013-02-12 08:11:00,
2013-02-12 03:16:00,35.0,20.9,30.04,South,180,0.0,7.1,56,0.00,,,0.00,WUHU216HW,2013-02-12 08:16:00,
2013-02-12 03:21:00,35.0,20.9,30.04,West,270,0.0,5.1,56,0.00,,,0.00,WUHU216HW,2013-02-12 08:21:00,
2013-02-12 03:26:00,34.8,21.1,30.04,WSW,248,2.9,7.3,57,0.00,,,0.00,WUHU216HW,2013-02-12 08:26:00,
2013-02-12 03:31:00,34.7,20.9,30.04,WSW,248,4.2,7.3,57,0.00,,,0.00,WUHU216HW,2013-02-12 08:31:00,
2013-02-12 03:36:00,34.5,20.8,30.04,SW,225,0.0,5.5,57,0.00,,,0.00,WUHU216HW,2013-02-12 08:36:00,
2013-02-12 03:41:00,34.3,21.0,30.04,SW,225,1.5,3.5,58,0.00,,,0.00,WUHU216HW,2013-02-12 08:41:00,
2013-02-12 03:46:00,34.3,21.0,30.04,SW,225,0.0,3.5,58,0.00,,,0.00,WUHU216HW,2013-02-12 08:46:00,
2013-02-12 03:51:00,34.1,20.8,30.04,SW,225,1.5,3.3,58,0.00,,,0.00,WUHU216HW,2013-02-12 08:51:00,
2013-02-12 03:56:00,33.9,20.6,30.04,WSW,248,3.3,3.3,58,0.00,,,0.00,WUHU216HW,2013-02-12 08:56:00,
2013-02-12 04:01:00,33.9,21.1,30.04,West,270,2.2,6.7,59,0.00,,,0.00,WUHU216HW,2013-02-12 09:01:00,
2013-02-12 04:06:00,33.9,21.1,30.04,SW,225,2.0,6.7,59,0.00,,,0.00,WUHU216HW,2013-02-12 09:06:00,
2013-02-12 04:11:00,33.9,21.1,30.04,SW,225,2.0,4.2,59,0.00,,,0.00,WUHU216HW,2013-02-12 09:11:00,
2013-02-12 04:16:00,33.9,21.1,30.04,West,270,0.0,3.3,59,0.00,,,0.00,WUHU216HW,2013-02-12 09:16:00,
2013-02-12 04:21:00,33.9,21.5,30.05,West,270,0.0,3.5,60,0.00,,,0.00,WUHU216HW,2013-02-12 09:21:00,
2013-02-12 04:26:00,33.9,21.5,30.05,WSW,248,5.8,5.8,60,0.00,,,0.00,WUHU216HW,2013-02-12 09:26:00,
2013-02-12 04:31:00,33.9,21.5,30.05,SW,225,0.0,5.8,60,0.00,,,0.00,WUHU216HW,2013-02-12 09:31:00,
2013-02-12 04:36:00,33.9,21.5,30.05,WSW,248,0.0,2.6,60,0.00,,,0.00,WUHU216HW,2013-02-12 09:36:00,
2013-02-12 04:41:00,33.9,21.5,30.06,SSW,203,0.0,4.6,60,0.00,,,0.00,WUHU216HW,2013-02-12 09:41:00,
2013-02-12 04:46:00,33.9,21.5,30.06,WSW,248,0.0,4.6,60,0.00,,,0.00,WUHU216HW,2013-02-12 09:46:00,
2013-02-12 04:51:00,33.9,21.5,30.06,West,270,0.0,3.1,60,0.00,,,0.00,WUHU216HW,2013-02-12 09:51:00,
2013-02-12 04:56:00,33.9,21.5,30.06,West,270,0.0,2.4,60,0.00,,,0.00,WUHU216HW,2013-02-12 09:56:00,
2013-02-12 05:01:00,33.9,21.9,30.06,WSW,248,0.0,0.0,61,0.00,,,0.00,WUHU216HW,2013-02-12 10:01:00,
2013-02-12 05:06:00,33.8,21.7,30.05,WSW,248,0.0,0.0,61,0.00,,,0.00,WUHU216HW,2013-02-12 10:06:00,
2013-02-12 05:11:00,33.9,21.9,30.06,WSW,248,0.0,3.3,61,0.00,,,0.00,WUHU216HW,2013-02-12 10:11:00,
2013-02-12 05:16:00,33.8,21.7,30.06,SW,225,3.5,3.5,61,0.00,,,0.00,WUHU216HW,2013-02-12 10:16:00,
2013-02-12 05:21:00,33.8,21.7,30.06,West,270,0.0,5.3,61,0.00,,,0.00,WUHU216HW,2013-02-12 10:21:00,
2013-02-12 05:26:00,33.8,21.7,30.06,West,270,2.6,5.3,61,0.00,,,0.00,WUHU216HW,2013-02-12 10:26:00,
2013-02-12 05:31:00,33.6,21.5,30.06,West,270,0.0,3.8,61,0.00,,,0.00,WUHU216HW,2013-02-12 10:31:00,
2013-02-12 05:36:00,33.4,21.7,30.07,SSW,203,2.4,2.4,62,0.00,,,0.00,WUHU216HW,2013-02-12 10:36:00,
2013-02-12 05:41:00,33.4,21.7,30.07,West,270,5.1,5.1,62,0.00,,,0.00,WUHU216HW,2013-02-12 10:41:00,
2013-02-12 05:46:00,33.4,21.7,30.07,WSW,248,4.9,5.8,62,0.00,,,0.00,WUHU216HW,2013-02-12 10:46:00,
2013-02-12 05:51:00,33.4,21.7,30.07,SW,225,3.8,5.8,62,0.00,,,0.00,WUHU216HW,2013-02-12 10:51:00,
2013-02-12 05:56:00,33.2,21.2,30.07,NW,315,0.0,5.3,61,0.00,,,0.00,WUHU216HW,2013-02-12 10:56:00,
2013-02-12 06:01:00,33.2,21.2,30.07,SW,225,4.4,4.4,61,0.00,,,0.00,WUHU216HW,2013-02-12 11:01:00,
2013-02-12 06:06:00,33.0,21.0,30.07,West,270,0.0,4.4,61,0.00,,,0.00,WUHU216HW,2013-02-12 11:06:00,
2013-02-12 06:11:00,32.9,20.9,30.08,West,270,0.0,5.5,61,0.00,,,0.00,WUHU216HW,2013-02-12 11:11:00,
2013-02-12 06:16:00,32.9,20.9,30.07,West,270,2.6,5.5,61,0.00,,,0.00,WUHU216HW,2013-02-12 11:16:00,
2013-02-12 06:21:00,32.7,20.7,30.07,SW,225,3.3,5.3,61,0.00,,,0.00,WUHU216HW,2013-02-12 11:21:00,
2013-02-12 06:26:00,32.5,20.2,30.07,WSW,248,1.3,5.3,60,0.00,,,0.00,WUHU216HW,2013-02-12 11:26:00,
2013-02-12 06:31:00,32.3,20.0,30.08,WSW,248,4.0,6.4,60,0.00,,,0.00,WUHU216HW,2013-02-12 11:31:00,
2013-02-12 06:36:00,32.1,19.9,30.08,WNW,293,8.5,8.5,60,0.00,,,0.00,WUHU216HW,2013-02-12 11:36:00,
2013-02-12 06:41:00,31.8,19.5,30.08,South,180,0.0,8.5,60,0.00,,,0.00,WUHU216HW,2013-02-12 11:41:00,
2013-02-12 06:46:00,31.6,19.4,30.08,WSW,248,0.0,4.4,60,0.00,,,0.00,WUHU216HW,2013-02-12 11:46:00,
2013-02-12 06:51:00,31.1,18.8,30.08,WSW,248,0.0,4.4,60,0.00,,,0.00,WUHU216HW,2013-02-12 11:51:00,
2013-02-12 06:56:00,30.9,18.6,30.08,West,270,0.0,1.3,60,0.00,,,0.00,WUHU216HW,2013-02-12 11:56:00,
2013-02-12 07:01:00,30.5,18.3,30.09,SW,225,1.5,2.4,60,0.00,,,0.00,WUHU216HW,2013-02-12 12:01:00,
2013-02-12 07:06:00,30.5,18.3,30.09,West,270,0.0,3.5,60,0.00,,,0.00,WUHU216HW,2013-02-12 12:06:00,
2013-02-12 07:11:00,30.5,18.3,30.09,SSW,203,0.0,3.5,60,0.00,,,0.00,WUHU216HW,2013-02-12 12:11:00,
2013-02-12 07:16:00,30.5,18.6,30.09,WSW,248,2.6,2.6,61,0.00,,,0.00,WUHU216HW,2013-02-12 12:16:00,
2013-02-12 07:21:00,30.5,18.6,30.10,SW,225,0.0,2.6,61,0.00,,,0.00,WUHU216HW,2013-02-12 12:21:00,
2013-02-12 07:26:00,30.5,18.6,30.10,WSW,248,0.0,2.9,61,0.00,,,0.00,WUHU216HW,2013-02-12 12:26:00,
2013-02-12 07:31:00,30.5,18.6,30.09,South,180,0.0,2.9,61,0.00,,,0.00,WUHU216HW,2013-02-12 12:31:00,
2013-02-12 07:36:00,30.5,18.6,30.10,WSW,248,1.3,1.3,61,0.00,,,0.00,WUHU216HW,2013-02-12 12:36:00,
2013-02-12 07:41:00,30.5,18.6,30.10,SW,225,0.0,1.3,61,0.00,,,0.00,WUHU216HW,2013-02-12 12:41:00,
2013-02-12 07:46:00,30.7,19.2,30.10,North,0,0.0,2.4,62,0.00,,,0.00,WUHU216HW,2013-02-12 12:46:00,
2013-02-12 07:51:00,30.5,19.0,30.11,WSW,248,0.0,2.4,62,0.00,,,0.00,WUHU216HW,2013-02-12 12:51:00,
2013-02-12 07:56:00,30.7,19.2,30.11,SW,225,0.0,2.0,62,0.00,,,0.00,WUHU216HW,2013-02-12 12:56:00,
2013-02-12 08:01:00,30.7,19.2,30.11,SW,225,0.0,0.0,62,0.00,,,0.00,WUHU216HW,2013-02-12 13:01:00,
2013-02-12 08:07:00,30.7,19.2,30.11,North,0,0.0,3.1,62,0.00,,,0.00,WUHU216HW,2013-02-12 13:07:00,
2013-02-12 08:12:00,30.9,19.4,30.11,SSW,203,0.0,3.1,62,0.00,,,0.00,WUHU216HW,2013-02-12 13:12:00,
2013-02-12 08:17:00,30.9,19.4,30.11,SSW,203,0.0,1.5,62,0.00,,,0.00,WUHU216HW,2013-02-12 13:17:00,
2013-02-12 08:22:00,30.9,19.4,30.12,SW,225,0.0,1.5,62,0.00,,,0.00,WUHU216HW,2013-02-12 13:22:00,
2013-02-12 08:27:00,30.9,19.4,30.12,SW,225,0.0,1.3,62,0.00,,,0.00,WUHU216HW,2013-02-12 13:27:00,
2013-02-12 08:32:00,31.1,19.5,30.12,WSW,248,2.6,2.6,62,0.00,,,0.00,WUHU216HW,2013-02-12 13:32:00,
2013-02-12 08:37:00,31.1,19.5,30.12,WSW,248,0.0,3.1,62,0.00,,,0.00,WUHU216HW,2013-02-12 13:37:00,
2013-02-12 08:42:00,31.1,19.5,30.12,WSW,248,0.0,3.1,62,0.00,,,0.00,WUHU216HW,2013-02-12 13:42:00,
2013-02-12 08:47:00,31.4,19.9,30.12,WSW,248,0.0,0.0,62,0.00,,,0.00,WUHU216HW,2013-02-12 13:47:00,
2013-02-12 08:52:00,31.4,19.9,30.12,West,270,0.0,0.0,62,0.00,,,0.00,WUHU216HW,2013-02-12 13:52:00,
2013-02-12 08:57:00,31.6,20.1,30.12,WNW,293,0.0,0.0,62,0.00,,,0.00,WUHU216HW,2013-02-12 13:57:00,
2013-02-12 09:02:00,31.8,20.3,30.12,West,270,0.0,0.0,62,0.00,,,0.00,WUHU216HW,2013-02-12 14:02:00,
2013-02-12 09:07:00,32.0,20.6,30.13,SW,225,0.0,2.6,62,0.00,,,0.00,WUHU216HW,2013-02-12 14:07:00,
2013-02-12 09:12:00,32.1,20.6,30.12,WNW,293,4.4,4.4,62,0.00,,,0.00,WUHU216HW,2013-02-12 14:12:00,
2013-02-12 09:17:00,32.1,20.6,30.13,WSW,248,0.0,4.4,62,0.00,,,0.00,WUHU216HW,2013-02-12 14:17:00,
2013-02-12 09:22:00,32.3,20.4,30.13,WSW,248,0.0,2.2,61,0.00,,,0.00,WUHU216HW,2013-02-12 14:22:00,
2013-02-12 09:27:00,32.3,20.4,30.13,NW,315,3.1,3.1,61,0.00,,,0.00,WUHU216HW,2013-02-12 14:27:00,
2013-02-12 09:32:00,32.3,20.6,30.13,West,270,0.0,3.1,61,0.00,,,0.00,WUHU216HW,2013-02-12 14:32:00,
2013-02-12 09:37:00,32.5,20.6,30.13,West,270,2.6,2.6,61,0.00,,,0.00,WUHU216HW,2013-02-12 14:37:00,
2013-02-12 09:42:00,32.7,20.7,30.13,West,270,0.0,2.6,61,0.00,,,0.00,WUHU216HW,2013-02-12 14:42:00,
2013-02-12 09:47:00,32.7,20.7,30.13,West,270,0.0,0.0,61,0.00,,,0.00,WUHU216HW,2013-02-12 14:47:00,
2013-02-12 09:52:00,32.9,20.9,30.12,West,270,0.0,0.0,61,0.00,,,0.00,WUHU216HW,2013-02-12 14:52:00,
2013-02-12 09:57:00,32.7,20.4,30.13,WNW,293,0.0,1.7,60,0.00,,,0.00,WUHU216HW,2013-02-12 14:57:00,
2013-02-12 10:02:00,32.9,20.5,30.13,SW,225,0.0,1.7,60,0.00,,,0.00,WUHU216HW,2013-02-12 15:02:00,
2013-02-12 10:07:00,32.9,20.5,30.13,WSW,248,0.0,1.3,60,0.00,,,0.00,WUHU216HW,2013-02-12 15:07:00,
2013-02-12 10:12:00,33.2,20.8,30.12,WSW,248,0.0,3.1,60,0.00,,,0.00,WUHU216HW,2013-02-12 15:12:00,
2013-02-12 10:17:00,33.4,21.0,30.12,WSW,248,0.0,3.1,60,0.00,,,0.00,WUHU216HW,2013-02-12 15:17:00,
2013-02-12 10:22:00,33.9,21.5,30.12,SSW,203,3.1,6.0,60,0.00,,,0.00,WUHU216HW,2013-02-12 15:22:00,
2013-02-12 10:27:00,34.7,22.2,30.12,WSW,248,0.0,6.0,60,0.00,,,0.00,WUHU216HW,2013-02-12 15:27:00,
2013-02-12 10:32:00,35.2,22.8,30.12,South,180,2.0,2.0,60,0.00,,,0.00,WUHU216HW,2013-02-12 15:32:00,
2013-02-12 10:37:00,35.6,22.7,30.12,South,180,3.1,3.1,59,0.00,,,0.00,WUHU216HW,2013-02-12 15:37:00,
2013-02-12 10:42:00,35.4,22.1,30.12,SW,225,0.0,3.1,58,0.00,,,0.00,WUHU216HW,2013-02-12 15:42:00,
2013-02-12 10:47:00,35.0,21.5,30.12,West,270,0.0,0.0,57,0.00,,,0.00,WUHU216HW,2013-02-12 15:47:00,
2013-02-12 10:52:00,35.2,21.5,30.12,West,270,0.0,0.0,57,0.00,,,0.00,WUHU216HW,2013-02-12 15:52:00,
2013-02-12 10:57:00,35.9,22.6,30.12,SSW,203,0.0,0.6,58,0.00,,,0.00,WUHU216HW,2013-02-12 15:57:00,
2013-02-12 11:02:00,36.8,23.4,30.12,SW,225,0.0,2.4,58,0.00,,,0.00,WUHU216HW,2013-02-12 16:02:00,
2013-02-12 11:07:00,37.7,23.6,30.12,SSW,203,2.4,2.4,57,0.00,,,0.00,WUHU216HW,2013-02-12 16:07:00,
2013-02-12 11:12:00,38.3,23.8,30.12,SW,225,0.0,2.4,56,0.00,,,0.00,WUHU216HW,2013-02-12 16:12:00,
2013-02-12 11:17:00,38.4,23.6,30.12,SW,225,0.0,4.0,55,0.00,,,0.00,WUHU216HW,2013-02-12 16:17:00,
2013-02-12 11:22:00,38.6,23.7,30.11,WSW,248,0.0,4.0,55,0.00,,,0.00,WUHU216HW,2013-02-12 16:22:00,
2013-02-12 11:27:00,38.8,23.5,30.11,WSW,248,0.0,0.0,54,0.00,,,0.00,WUHU216HW,2013-02-12 16:27:00,
2013-02-12 11:32:00,39.3,23.5,30.12,NW,315,0.0,0.0,53,0.00,,,0.00,WUHU216HW,2013-02-12 16:32:00,
2013-02-12 11:37:00,39.7,23.4,30.10,West,270,0.0,2.0,52,0.00,,,0.00,WUHU216HW,2013-02-12 16:37:00,
2013-02-12 11:42:00,40.1,23.7,30.09,NNW,338,0.0,2.0,52,0.00,,,0.00,WUHU216HW,2013-02-12 16:42:00,
2013-02-12 11:47:00,40.1,23.3,30.09,SW,225,1.7,1.7,51,0.00,,,0.00,WUHU216HW,2013-02-12 16:47:00,
2013-02-12 11:52:00,40.2,23.5,30.09,West,270,0.0,6.9,51,0.00,,,0.00,WUHU216HW,2013-02-12 16:52:00,
2013-02-12 11:57:00,40.4,23.2,30.08,West,270,0.0,6.9,50,0.00,,,0.00,WUHU216HW,2013-02-12 16:57:00,
2013-02-12 12:02:00,40.6,23.3,30.07,WSW,248,0.0,1.7,50,0.00,,,0.00,WUHU216HW,2013-02-12 17:02:00,
2013-02-12 12:07:00,41.1,23.9,30.08,SE,135,0.0,1.7,50,0.00,,,0.00,WUHU216HW,2013-02-12 17:07:00,
2013-02-12 12:12:00,41.0,23.1,30.09,South,180,0.0,3.1,49,0.00,,,0.00,WUHU216HW,2013-02-12 17:12:00,
2013-02-12 12:17:00,40.8,23.0,30.09,WSW,248,2.6,3.1,49,0.00,,,0.00,WUHU216HW,2013-02-12 17:17:00,
2013-02-12 12:22:00,40.6,22.3,30.09,West,270,0.0,4.2,48,0.00,,,0.00,WUHU216HW,2013-02-12 17:22:00,
2013-02-12 12:27:00,40.8,22.3,30.09,SSW,203,0.0,4.2,48,0.00,,,0.00,WUHU216HW,2013-02-12 17:27:00,
2013-02-12 12:32:00,41.3,23.5,30.08,WNW,293,0.0,4.2,49,0.00,,,0.00,WUHU216HW,2013-02-12 17:32:00,
2013-02-12 12:37:00,41.9,24.0,30.08,SW,225,0.0,3.3,48,0.00,,,0.00,WUHU216HW,2013-02-12 17:37:00,
2013-02-12 12:42:00,42.4,23.5,30.08,SW,225,2.0,7.1,47,0.00,,,0.00,WUHU216HW,2013-02-12 17:42:00,
2013-02-12 12:47:00,42.6,23.1,30.07,WNW,293,0.0,7.1,46,0.00,,,0.00,WUHU216HW,2013-02-12 17:47:00,
2013-02-12 12:52:00,43.1,23.6,30.07,WNW,293,3.3,5.1,46,0.00,,,0.00,WUHU216HW,2013-02-12 17:52:00,
2013-02-12 12:57:00,44.0,24.4,30.07,SW,225,0.0,3.5,46,0.00,,,0.00,WUHU216HW,2013-02-12 17:57:00,
2013-02-12 13:02:00,44.2,24.1,30.06,SW,225,0.0,3.1,45,0.00,,,0.00,WUHU216HW,2013-02-12 18:02:00,
2013-02-12 13:07:00,44.9,24.2,30.04,WNW,293,0.8,3.1,44,0.00,,,0.00,WUHU216HW,2013-02-12 18:07:00,
2013-02-12 13:12:00,46.0,25.1,30.04,SSE,158,0.0,1.3,44,0.00,,,0.00,WUHU216HW,2013-02-12 18:12:00,
2013-02-12 13:17:00,46.7,24.7,30.02,WSW,248,0.8,4.2,42,0.00,,,0.00,WUHU216HW,2013-02-12 18:17:00,
2013-02-12 13:22:00,47.3,24.7,30.02,SW,225,0.0,4.2,41,0.00,,,0.00,WUHU216HW,2013-02-12 18:22:00,
2013-02-12 13:27:00,47.8,24.6,30.00,SSW,203,0.0,2.9,40,0.00,,,0.00,WUHU216HW,2013-02-12 18:27:00,
2013-02-12 13:32:00,48.9,25.7,29.98,WNW,293,1.3,2.4,40,0.00,,,0.00,WUHU216HW,2013-02-12 18:32:00,
2013-02-12 13:37:00,50.3,26.9,29.98,West,270,1.5,2.0,40,0.00,,,0.00,WUHU216HW,2013-02-12 18:37:00,
2013-02-12 13:42:00,50.7,25.8,29.98,South,180,0.0,1.5,38,0.00,,,0.00,WUHU216HW,2013-02-12 18:42:00,
2013-02-12 13:47:00,51.0,24.8,29.97,WSW,248,0.0,0.0,36,0.00,,,0.00,WUHU216HW,2013-02-12 18:47:00,
2013-02-12 13:52:00,51.4,24.9,29.97,WSW,248,0.0,0.0,36,0.00,,,0.00,WUHU216HW,2013-02-12 18:52:00,
2013-02-12 13:57:00,51.9,25.6,29.97,West,270,0.0,0.0,36,0.00,,,0.00,WUHU216HW,2013-02-12 18:57:00,
2013-02-12 14:02:00,52.7,25.6,29.98,WNW,293,2.6,2.6,35,0.00,,,0.00,WUHU216HW,2013-02-12 19:02:00,
2013-02-12 14:07:00,53.2,25.4,29.99,WSW,248,0.0,2.6,34,0.00,,,0.00,WUHU216HW,2013-02-12 19:07:00,
2013-02-12 14:12:00,53.6,24.8,29.99,SW,225,0.0,2.0,33,0.00,,,0.00,WUHU216HW,2013-02-12 19:12:00,
2013-02-12 14:17:00,53.2,24.0,30.02,SSW,203,0.8,2.9,32,0.00,,,0.00,WUHU216HW,2013-02-12 19:17:00,
2013-02-12 14:22:00,52.5,23.3,30.02,South,180,0.0,6.2,32,0.00,,,0.00,WUHU216HW,2013-02-12 19:22:00,
2013-02-12 14:27:00,52.1,23.0,30.02,WSW,248,2.4,6.2,32,0.00,,,0.00,WUHU216HW,2013-02-12 19:27:00,
2013-02-12 14:32:00,52.3,23.2,30.01,WSW,248,0.0,5.3,32,0.00,,,0.00,WUHU216HW,2013-02-12 19:32:00,
2013-02-12 14:37:00,52.5,24.0,30.01,South,180,3.5,3.5,33,0.00,,,0.00,WUHU216HW,2013-02-12 19:37:00,
2013-02-12 14:42:00,52.7,24.2,30.01,SSW,203,0.0,5.5,33,0.00,,,0.00,WUHU216HW,2013-02-12 19:42:00,
2013-02-12 14:47:00,52.5,23.3,30.00,SW,225,0.0,7.3,32,0.00,,,0.00,WUHU216HW,2013-02-12 19:47:00,
2013-02-12 14:52:00,52.5,23.3,30.01,South,180,0.0,7.3,32,0.00,,,0.00,WUHU216HW,2013-02-12 19:52:00,
2013-02-12 14:57:00,52.5,23.3,30.01,WSW,248,2.2,2.6,32,0.00,,,0.00,WUHU216HW,2013-02-12 19:57:00,
2013-02-12 15:02:00,52.5,22.7,30.01,West,270,0.0,2.2,31,0.00,,,0.00,WUHU216HW,2013-02-12 20:02:00,
2013-02-12 15:07:00,52.7,22.1,30.01,WSW,248,0.0,3.1,30,0.00,,,0.00,WUHU216HW,2013-02-12 20:07:00,
2013-02-12 15:12:00,52.5,22.0,30.01,South,180,0.0,5.5,30,0.00,,,0.00,WUHU216HW,2013-02-12 20:12:00,
2013-02-12 15:17:00,52.7,22.8,30.01,West,270,0.0,5.5,31,0.00,,,0.00,WUHU216HW,2013-02-12 20:17:00,
2013-02-12 15:22:00,53.0,22.5,30.01,WSW,248,0.0,5.3,30,0.00,,,0.00,WUHU216HW,2013-02-12 20:22:00,
2013-02-12 15:27:00,53.0,22.5,30.01,WSW,248,0.0,5.3,30,0.00,,,0.00,WUHU216HW,2013-02-12 20:27:00,
2013-02-12 15:32:00,52.8,21.3,30.00,WSW,248,0.0,3.3,29,0.00,,,0.00,WUHU216HW,2013-02-12 20:32:00,
2013-02-12 15:37:00,53.0,21.5,30.01,SSW,203,4.4,5.1,29,0.00,,,0.00,WUHU216HW,2013-02-12 20:37:00,
2013-02-12 15:42:00,52.7,21.2,30.01,SW,225,2.6,5.1,29,0.00,,,0.00,WUHU216HW,2013-02-12 20:42:00,
2013-02-12 15:47:00,52.7,21.2,30.01,SSW,203,1.5,4.9,29,0.00,,,0.00,WUHU216HW,2013-02-12 20:47:00,
2013-02-12 15:52:00,53.0,21.5,30.01,South,180,4.2,4.6,29,0.00,,,0.00,WUHU216HW,2013-02-12 20:52:00,
2013-02-12 15:57:00,53.0,20.6,30.01,WSW,248,0.0,4.6,28,0.00,,,0.00,WUHU216HW,2013-02-12 20:57:00,
2013-02-12 16:02:00,53.9,21.3,30.01,SW,225,0.0,0.8,28,0.00,,,0.00,WUHU216HW,2013-02-12 21:02:00,
2013-02-12 16:07:00,54.5,21.8,30.01,WNW,293,0.0,2.4,28,0.00,,,0.00,WUHU216HW,2013-02-12 21:07:00,
2013-02-12 16:12:00,55.0,20.3,30.00,WSW,248,0.0,2.4,26,0.00,,,0.00,WUHU216HW,2013-02-12 21:12:00,
2013-02-12 16:17:00,54.8,19.2,30.00,South,180,3.1,3.1,25,0.00,,,0.00,WUHU216HW,2013-02-12 21:17:00,
2013-02-12 16:22:00,54.3,18.8,30.01,WSW,248,0.0,3.1,25,0.00,,,0.00,WUHU216HW,2013-02-12 21:22:00,
2013-02-12 16:27:00,54.1,18.6,30.01,WNW,293,0.0,2.4,25,0.00,,,0.00,WUHU216HW,2013-02-12 21:27:00,
2013-02-12 16:32:00,53.9,19.4,30.00,SW,225,0.0,5.3,26,0.00,,,0.00,WUHU216HW,2013-02-12 21:32:00,
2013-02-12 16:37:00,53.6,18.0,30.01,SW,225,3.1,5.3,26,0.00,,,0.00,WUHU216HW,2013-02-12 21:37:00,
2013-02-12 16:42:00,53.0,17.7,30.01,WSW,248,2.2,3.5,25,0.00,,,0.00,WUHU216HW,2013-02-12 21:42:00,
2013-02-12 16:47:00,52.5,17.3,30.01,SSW,203,0.0,3.5,25,0.00,,,0.00,WUHU216HW,2013-02-12 21:47:00,
2013-02-12 16:52:00,51.8,17.6,30.01,West,270,0.0,0.0,26,0.00,,,0.00,WUHU216HW,2013-02-12 21:52:00,
2013-02-12 16:57:00,51.2,17.1,30.00,West,270,0.0,0.0,26,0.00,,,0.00,WUHU216HW,2013-02-12 21:57:00,
2013-02-12 17:02:00,51.2,18.0,30.01,SW,225,0.0,0.0,27,0.00,,,0.00,WUHU216HW,2013-02-12 22:02:00,
2013-02-12 17:07:00,50.7,17.6,30.01,West,270,0.0,0.0,27,0.00,,,0.00,WUHU216HW,2013-02-12 22:07:00,
2013-02-12 17:12:00,50.3,18.2,30.00,WSW,248,0.0,0.0,28,0.00,,,0.00,WUHU216HW,2013-02-12 22:12:00,
2013-02-12 17:17:00,49.6,17.6,30.00,South,180,0.0,0.0,28,0.00,,,0.00,WUHU216HW,2013-02-12 22:17:00,
2013-02-12 17:22:00,48.5,8.0,30.00,SSE,158,0.0,5.1,19,0.00,,,0.00,WUHU216HW,2013-02-12 22:22:00,
2013-02-12 17:27:00,47.6,7.3,30.00,SSW,203,0.0,5.1,19,0.00,,,0.00,WUHU216HW,2013-02-12 22:27:00,
2013-02-12 17:32:00,47.1,6.9,29.99,WSW,248,0.0,0.0,19,0.00,,,0.00,WUHU216HW,2013-02-12 22:32:00,
2013-02-12 17:37:00,46.7,6.5,29.99,West,270,0.0,0.0,19,0.00,,,0.00,WUHU216HW,2013-02-12 22:37:00,
2013-02-12 17:42:00,46.2,6.1,30.00,WSW,248,0.0,0.0,19,0.00,,,0.00,WUHU216HW,2013-02-12 22:42:00,
2013-02-12 17:47:00,45.8,5.8,29.99,WSW,248,0.0,0.0,19,0.00,,,0.00,WUHU216HW,2013-02-12 22:47:00,
2013-02-12 17:52:00,45.3,5.4,29.99,SSW,203,0.0,0.0,19,0.00,,,0.00,WUHU216HW,2013-02-12 22:52:00,
2013-02-12 17:57:00,44.9,5.1,29.99,SSW,203,0.0,0.0,19,0.00,,,0.00,WUHU216HW,2013-02-12 22:57:00,
2013-02-12 18:02:00,44.7,4.9,29.99,West,270,0.0,0.0,19,0.00,,,0.00,WUHU216HW,2013-02-12 23:02:00,
2013-02-12 18:07:00,44.4,4.6,29.98,West,270,0.0,0.0,19,0.00,,,0.00,WUHU216HW,2013-02-12 23:07:00,
2013-02-12 18:12:00,44.2,4.5,29.98,West,270,0.0,0.0,19,0.00,,,0.00,WUHU216HW,2013-02-12 23:12:00,
2013-02-12 18:17:00,43.7,4.1,29.98,West,270,0.0,0.0,19,0.00,,,0.00,WUHU216HW,2013-02-12 23:17:00,
2013-02-12 18:22:00,43.5,3.9,29.98,West,270,0.0,0.0,19,0.00,,,0.00,WUHU216HW,2013-02-12 23:22:00,
2013-02-12 18:27:00,43.3,3.7,29.98,West,270,0.0,0.0,19,0.00,,,0.00,WUHU216HW,2013-02-12 23:27:00,
2013-02-12 18:32:00,42.9,6.4,29.98,West,270,0.0,0.0,22,0.00,,,0.00,WUHU216HW,2013-02-12 23:32:00,
2013-02-12 18:37:00,42.8,8.0,29.98,West,270,0.0,0.0,24,0.00,,,0.00,WUHU216HW,2013-02-12 23:37:00,
2013-02-12 18:42:00,42.4,7.7,29.97,West,270,0.0,0.0,24,0.00,,,0.00,WUHU216HW,2013-02-12 23:42:00,
2013-02-12 18:47:00,42.2,8.5,29.97,West,270,0.0,0.0,25,0.00,,,0.00,WUHU216HW,2013-02-12 23:47:00,
2013-02-12 18:52:00,41.9,9.1,29.96,West,270,0.0,0.0,27,0.00,,,0.00,WUHU216HW,2013-02-12 23:52:00,
2013-02-12 18:57:00,41.7,8.9,29.96,West,270,0.0,0.0,26,0.00,,,0.00,WUHU216HW,2013-02-12 23:57:00,
2013-02-12 19:02:00,41.5,11.5,29.96,West,270,0.0,0.0,29,0.00,,,0.00,WUHU216HW,2013-02-13 00:02:00,
2013-02-12 19:07:00,41.3,12.3,29.96,West,270,0.0,0.0,30,0.00,,,0.00,WUHU216HW,2013-02-13 00:07:00,
2013-02-12 19:12:00,41.1,12.1,29.96,West,270,0.0,0.0,30,0.00,,,0.00,WUHU216HW,2013-02-13 00:12:00,
2013-02-12 19:17:00,40.8,11.8,29.96,West,270,0.0,0.0,30,0.00,,,0.00,WUHU216HW,2013-02-13 00:17:00,
2013-02-12 19:22:00,40.6,12.3,29.96,West,270,0.0,0.0,31,0.00,,,0.00,WUHU216HW,2013-02-13 00:22:00,
2013-02-12 19:27:00,40.4,12.1,29.95,West,270,0.0,0.0,31,0.00,,,0.00,WUHU216HW,2013-02-13 00:27:00,
2013-02-12 19:32:00,40.2,12.5,29.95,West,270,0.0,0.0,32,0.00,,,0.00,WUHU216HW,2013-02-13 00:32:00,
2013-02-12 19:37:00,39.9,12.5,29.95,West,270,0.0,0.0,32,0.00,,,0.00,WUHU216HW,2013-02-13 00:37:00,
2013-02-12 19:42:00,39.7,12.1,29.95,West,270,0.0,0.0,32,0.00,,,0.00,WUHU216HW,2013-02-13 00:42:00,
2013-02-12 19:47:00,39.3,12.5,29.95,West,270,0.0,0.0,33,0.00,,,0.00,WUHU216HW,2013-02-13 00:47:00,
2013-02-12 19:52:00,39.2,12.3,29.95,West,270,0.0,0.0,33,0.00,,,0.00,WUHU216HW,2013-02-13 00:52:00,
2013-02-12 19:57:00,38.8,12.6,29.95,West,270,0.0,0.0,34,0.00,,,0.00,WUHU216HW,2013-02-13 00:57:00,
2013-02-12 20:02:00,38.8,13.1,29.95,West,270,0.0,0.0,35,0.00,,,0.00,WUHU216HW,2013-02-13 01:02:00,
2013-02-12 20:07:00,38.4,12.9,29.94,West,270,0.0,0.0,35,0.00,,,0.00,WUHU216HW,2013-02-13 01:07:00,
2013-02-12 20:12:00,38.3,12.8,29.94,West,270,0.0,0.0,35,0.00,,,0.00,WUHU216HW,2013-02-13 01:12:00,
2013-02-12 20:17:00,38.1,12.6,29.94,West,270,0.0,0.0,36,0.00,,,0.00,WUHU216HW,2013-02-13 01:17:00,
2013-02-12 20:22:00,37.9,13.1,29.94,West,270,0.0,0.0,36,0.00,,,0.00,WUHU216HW,2013-02-13 01:22:00,
2013-02-12 20:27:00,37.7,12.9,29.94,West,270,0.0,0.0,36,0.00,,,0.00,WUHU216HW,2013-02-13 01:27:00,
2013-02-12 20:32:00,37.5,12.8,29.95,West,270,0.0,0.0,36,0.00,,,0.00,WUHU216HW,2013-02-13 01:32:00,
2013-02-12 20:37:00,37.5,12.8,29.95,West,270,0.0,0.0,36,0.00,,,0.00,WUHU216HW,2013-02-13 01:37:00,
2013-02-12 20:42:00,37.5,13.4,29.95,West,270,0.0,0.0,37,0.00,,,0.00,WUHU216HW,2013-02-13 01:42:00,
2013-02-12 20:47:00,37.5,13.4,29.95,West,270,0.0,0.0,37,0.00,,,0.00,WUHU216HW,2013-02-13 01:47:00,
2013-02-12 20:52:00,37.4,14.1,29.96,West,270,0.0,0.0,37,0.00,,,0.00,WUHU216HW,2013-02-13 01:52:00,
2013-02-12 20:57:00,37.4,13.3,29.95,West,270,0.0,0.0,37,0.00,,,0.00,WUHU216HW,2013-02-13 01:57:00,
2013-02-12 21:02:00,37.0,12.9,29.95,West,270,0.0,0.0,37,0.00,,,0.00,WUHU216HW,2013-02-13 02:02:00,
2013-02-12 21:07:00,37.2,13.8,29.96,SSW,203,0.0,0.0,38,0.00,,,0.00,WUHU216HW,2013-02-13 02:07:00,
2013-02-12 21:12:00,37.0,13.8,29.96,SSW,203,0.0,0.0,38,0.00,,,0.00,WUHU216HW,2013-02-13 02:12:00,
2013-02-12 21:17:00,37.0,14.2,29.96,South,180,0.0,0.0,39,0.00,,,0.00,WUHU216HW,2013-02-13 02:17:00,
2013-02-12 21:22:00,37.0,14.2,29.95,South,180,0.0,0.0,39,0.00,,,0.00,WUHU216HW,2013-02-13 02:22:00,
2013-02-12 21:27:00,37.0,14.2,29.95,SSW,203,0.0,0.6,39,0.00,,,0.00,WUHU216HW,2013-02-13 02:27:00,
2013-02-12 21:32:00,37.0,14.2,29.95,SSW,203,0.0,0.6,39,0.00,,,0.00,WUHU216HW,2013-02-13 02:32:00,
2013-02-12 21:37:00,37.0,14.9,29.94,South,180,0.0,0.0,40,0.00,,,0.00,WUHU216HW,2013-02-13 02:37:00,
2013-02-12 21:42:00,37.0,14.9,29.94,South,180,0.0,0.0,40,0.00,,,0.00,WUHU216HW,2013-02-13 02:42:00,
2013-02-12 21:47:00,37.0,14.9,29.94,South,180,0.0,0.0,40,0.00,,,0.00,WUHU216HW,2013-02-13 02:47:00,
2013-02-12 21:52:00,36.8,14.7,29.94,South,180,0.0,0.0,40,0.00,,,0.00,WUHU216HW,2013-02-13 02:52:00,
2013-02-12 21:57:00,36.6,14.6,29.94,SSW,203,0.0,0.0,40,0.00,,,0.00,WUHU216HW,2013-02-13 02:57:00,
2013-02-12 22:02:00,36.5,14.4,29.95,SSW,203,0.0,0.0,40,0.00,,,0.00,WUHU216HW,2013-02-13 03:02:00,
2013-02-12 22:07:00,36.5,14.4,29.95,SSW,203,0.0,0.0,40,0.00,,,0.00,WUHU216HW,2013-02-13 03:07:00,
2013-02-12 22:12:00,36.5,14.4,29.94,SSW,203,0.0,0.0,40,0.00,,,0.00,WUHU216HW,2013-02-13 03:12:00,
2013-02-12 22:17:00,36.5,14.4,29.94,SSW,203,0.0,0.0,40,0.00,,,0.00,WUHU216HW,2013-02-13 03:17:00,
2013-02-12 22:22:00,36.5,14.4,29.94,SSW,203,0.0,0.0,40,0.00,,,0.00,WUHU216HW,2013-02-13 03:22:00,
2013-02-12 22:27:00,36.3,14.2,29.94,SSW,203,0.0,0.0,40,0.00,,,0.00,WUHU216HW,2013-02-13 03:27:00,
2013-02-12 22:32:00,35.7,13.8,29.94,SSW,203,0.0,0.0,40,0.00,,,0.00,WUHU216HW,2013-02-13 03:32:00,
2013-02-12 22:37:00,35.7,13.8,29.94,SSW,203,0.0,0.0,40,0.00,,,0.00,WUHU216HW,2013-02-13 03:37:00,
2013-02-12 22:42:00,35.7,13.8,29.94,SSW,203,0.0,0.0,40,0.00,,,0.00,WUHU216HW,2013-02-13 03:42:00,
2013-02-12 22:47:00,35.7,13.8,29.94,SSW,203,0.0,0.0,40,0.00,,,0.00,WUHU216HW,2013-02-13 03:47:00,
2013-02-12 22:52:00,35.7,14.3,29.94,SSW,203,0.0,0.0,41,0.00,,,0.00,WUHU216HW,2013-02-13 03:52:00,
2013-02-12 22:57:00,35.7,14.3,29.94,SSW,203,0.0,0.0,41,0.00,,,0.00,WUHU216HW,2013-02-13 03:57:00,
2013-02-12 23:02:00,35.7,14.3,29.94,SSW,203,0.0,0.0,41,0.00,,,0.00,WUHU216HW,2013-02-13 04:02:00,
2013-02-12 23:07:00,35.7,14.3,29.94,SSW,203,0.0,0.0,41,0.00,,,0.00,WUHU216HW,2013-02-13 04:07:00,
2013-02-12 23:12:00,35.7,14.3,29.94,SSW,203,0.0,0.0,41,0.00,,,0.00,WUHU216HW,2013-02-13 04:12:00,
2013-02-12 23:17:00,35.6,14.1,29.94,SSW,203,0.0,0.0,41,0.00,,,0.00,WUHU216HW,2013-02-13 04:17:00,
2013-02-12 23:22:00,35.6,14.1,29.94,SSW,203,0.0,0.0,41,0.00,,,0.00,WUHU216HW,2013-02-13 04:22:00,
2013-02-12 23:27:00,35.4,13.9,29.94,SSW,203,0.0,0.0,41,0.00,,,0.00,WUHU216HW,2013-02-13 04:27:00,
2013-02-12 23:33:00,35.4,14.1,29.94,SSW,203,0.0,0.0,41,0.00,,,0.00,WUHU216HW,2013-02-13 04:33:00,
2013-02-12 23:37:00,35.4,13.9,29.93,SSW,203,0.0,0.0,41,0.00,,,0.00,WUHU216HW,2013-02-13 04:37:00,
2013-02-12 23:43:00,35.2,14.3,29.93,SSW,203,0.0,0.0,42,0.00,,,0.00,WUHU216HW,2013-02-13 04:43:00,
2013-02-12 23:48:00,35.2,13.8,29.93,SSW,203,0.0,0.0,42,0.00,,,0.00,WUHU216HW,2013-02-13 04:48:00,
2013-02-12 23:53:00,35.2,13.8,29.93,SSW,203,0.0,0.0,41,0.00,,,0.00,WUHU216HW,2013-02-13 04:53:00,
2013-02-12 23:58:00,35.0,13.6,29.93,SSW,203,0.0,0.0,41,0.00,,,0.00,WUHU216HW,2013-02-13 04:58:00,